AMC-6

Last updated on Wed Sep 17 2025 00:02:46 GMT+0000 (Coordinated Universal Time)

1 26580U 00067A 25259.57822628 .00000069 00000+0 00000+0 0 9990 2 26580 0.0332 15.5855 0004086 177.2716 236.0198 1.00272489 91146
UTC large
Height (km)
Speed (km/s)
/
Latitude / Longitude
Inclination (degrees)
Orbital Period (minutes)
Azimuth
Elevation
Range (km)
Doppler Factor

Next 0 passes for location: London (51.5072 / 0.1276)

Sorry there are no passes over London.